This is the latest recevied weather packets stored in our database for station/object SQ6XL-13. If no packets are shown the sender has not sent any weather packets the latest 10 day(s).
| Time | Temp. | Humidity | Pressure | Rain* | Wind** | Luminosity | Snow |
|---|---|---|---|---|---|---|---|
| 1777575397 | 6.67° C | 60% | 1028.5 hPa | 0 mm | - | - | - |
| 1777574807 | 7.22° C | 59% | 1028.5 hPa | 0 mm | - | - | - |
| 1777574251 | 7.78° C | 57% | 1028.4 hPa | 0 mm | - | - | - |
| 1777573727 | 8.89° C | 55% | 1028.2 hPa | 0 mm | - | - | - |
| 1777573231 | 10° C | 53% | 1028.3 hPa | 0 mm | - | - | - |
| 1777572702 | 10° C | 52% | 1028.2 hPa | 0 mm | - | - | - |
| 1777572217 | 11.11° C | 51% | 1028.2 hPa | 0 mm | - | - | - |
| 1777571651 | 11.11° C | 51% | 1028.3 hPa | 0 mm | - | - | - |
| 1777571102 | 11.67° C | 50% | 1028.1 hPa | 0 mm | - | - | - |
| 1777570607 | 11.67° C | 49% | 1028.3 hPa | 0 mm | - | - | - |
| 1777570077 | 11.67° C | 49% | 1028.3 hPa | 0 mm | - | - | - |
| 1777569548 | 12.22° C | 48% | 1028.4 hPa | 0 mm | - | - | - |
| 1777568951 | 12.22° C | 47% | 1028.4 hPa | 0 mm | - | - | - |
| 1777568422 | 12.22° C | 46% | 1028.5 hPa | 0 mm | - | - | - |
| 1777567907 | 12.78° C | 46% | 1028.3 hPa | 0 mm | - | - | - |
| 1777567357 | 12.78° C | 45% | 1028.4 hPa | 0 mm | - | - | - |
| 1777566757 | 12.78° C | 44% | 1028.5 hPa | 0 mm | - | - | - |
| 1777566237 | 12.78° C | 44% | 1028.4 hPa | 0 mm | - | - | - |
| 1777565637 | 12.78° C | 44% | 1028.4 hPa | 0 mm | - | - | - |
| 1777565057 | 13.33° C | 43% | 1028.5 hPa | 0 mm | - | - | - |
| 1777564571 | 12.78° C | 43% | 1028.5 hPa | 0 mm | - | - | - |
| 1777564031 | 13.33° C | 43% | 1028.6 hPa | 0 mm | - | - | - |
| 1777563491 | 13.33° C | 43% | 1028.5 hPa | 0 mm | - | - | - |
| 1777562957 | 13.33° C | 42% | 1028.4 hPa | 0 mm | - | - | - |
| 1777562377 | 13.33° C | 43% | 1028.6 hPa | 0 mm | - | - | - |
* Rain latest hour (hover to see other rain measurements)
** Current wind speed in m/s (hover to see current wind gust speed)